UAL2562 PHKO-KDFW

Flight info

Callsign UAL2562
Flight time N/A
Altitude 37000
Route KOA V5 MYNAH V11 UPP EBBER R577 ETNIC/N0474F390 R577 ELKEY LAX ANJLL EED AVANS/N0484F410 ZUN TXO TURKI JOVEM6
Aircraft B772/H-SDE2E3FGHIJ5LORVWXY/LB1D1

Departure

Time 2026-05-06 17:22
Airport Ellison Onizuka Kona International Airport at Keāhole (PHKO)

Arrival

Time N/A
Airport Dallas Fort Worth International Airport (KDFW)
Time Latitude Longitude Altitude Speed Heading
2026-05-06 16:46 19.73780 -156.04142 47 ft 0 kts 167°
2026-05-06 17:09 19.73785 -156.04143 52 ft 4 kts 165°
2026-05-06 17:10 19.73807 -156.04152 45 ft 2 kts 167°
2026-05-06 17:10 19.73830 -156.04160 47 ft 4 kts 140°
2026-05-06 17:10 19.73845 -156.04182 43 ft 4 kts 107°
2026-05-06 17:10 19.73850 -156.04210 42 ft 4 kts 92°
2026-05-06 17:11 19.73851 -156.04238 45 ft 4 kts 93°
2026-05-06 17:11 19.73852 -156.04267 47 ft 4 kts 90°
2026-05-06 17:11 19.73850 -156.04295 45 ft 4 kts 69°
2026-05-06 17:11 19.73836 -156.04314 43 ft 4 kts
2026-05-06 17:12 19.73811 -156.04316 43 ft 4 kts
2026-05-06 17:12 19.73784 -156.04319 46 ft 4 kts
2026-05-06 17:12 19.73763 -156.04321 46 ft 0 kts
2026-05-06 17:15 19.73767 -156.04321 47 ft 3 kts
2026-05-06 17:15 19.73807 -156.04317 47 ft 7 kts
2026-05-06 17:15 19.73847 -156.04315 47 ft 7 kts
2026-05-06 17:16 19.73876 -156.04312 47 ft 7 kts
2026-05-06 17:16 19.73941 -156.04305 47 ft 13 kts
2026-05-06 17:16 19.74030 -156.04297 47 ft 13 kts
2026-05-06 17:17 19.74119 -156.04289 47 ft 13 kts
2026-05-06 17:17 19.74209 -156.04281 48 ft 13 kts
2026-05-06 17:17 19.74297 -156.04273 50 ft 13 kts
2026-05-06 17:17 19.74386 -156.04264 51 ft 13 kts
2026-05-06 17:18 19.74475 -156.04256 50 ft 13 kts
2026-05-06 17:18 19.74565 -156.04248 52 ft 13 kts
2026-05-06 17:18 19.74654 -156.04239 53 ft 13 kts
2026-05-06 17:18 19.74743 -156.04232 51 ft 13 kts
2026-05-06 17:19 19.74832 -156.04224 53 ft 13 kts
2026-05-06 17:19 19.74921 -156.04216 52 ft 13 kts
2026-05-06 17:19 19.75011 -156.04208 51 ft 13 kts
2026-05-06 17:19 19.75091 -156.04201 50 ft 10 kts
2026-05-06 17:20 19.75164 -156.04194 49 ft 11 kts
2026-05-06 17:20 19.75237 -156.04187 48 ft 11 kts
2026-05-06 17:20 19.75309 -156.04184 50 ft 10 kts 354°
2026-05-06 17:20 19.75356 -156.04236 48 ft 11 kts 284°
2026-05-06 17:21 19.75365 -156.04314 47 ft 11 kts 275°
2026-05-06 17:21 19.75366 -156.04392 46 ft 12 kts 263°
2026-05-06 17:21 19.75217 -156.04447 50 ft 45 kts 184°
2026-05-06 17:21 19.74651 -156.04497 50 ft 117 kts 185°
2026-05-06 17:22 19.73624 -156.04578 71 ft 172 kts 184°
2026-05-06 17:22 19.72410 -156.04686 697 ft 177 kts 184°
2026-05-06 17:22 19.71199 -156.04936 1425 ft 181 kts 208°
2026-05-06 17:22 19.70341 -156.05928 1869 ft 195 kts 249°
2026-05-06 17:23 19.70214 -156.07404 2264 ft 209 kts 283°
2026-05-06 17:23 19.70785 -156.08863 2626 ft 219 kts 297°
2026-05-06 17:23 19.71494 -156.10359 2987 ft 233 kts 298°
2026-05-06 17:23 19.72263 -156.11879 3489 ft 241 kts 299°
2026-05-06 17:24 19.73101 -156.13504 3914 ft 255 kts 298°
2026-05-06 17:24 19.73956 -156.15184 4473 ft 264 kts 298°
2026-05-06 17:24 19.74816 -156.16941 4831 ft 278 kts 297°
2026-05-06 17:24 19.75678 -156.18784 4932 ft 279 kts 296°
2026-05-06 17:25 19.76490 -156.20626 5031 ft 273 kts 295°
2026-05-06 17:25 19.77312 -156.22433 5152 ft 271 kts 296°
2026-05-06 17:25 19.78137 -156.24249 5402 ft 273 kts 296°
2026-05-06 17:25 19.78951 -156.26072 5787 ft 272 kts 295°
2026-05-06 17:26 19.79751 -156.27926 6114 ft 279 kts 295°
2026-05-06 17:26 19.80532 -156.29798 6536 ft 275 kts 293°
2026-05-06 17:26 19.81296 -156.31650 7072 ft 268 kts 299°
2026-05-06 17:26 19.82501 -156.33029 7792 ft 262 kts 324°
2026-05-06 17:27 19.84184 -156.33890 8024 ft 278 kts 347°
2026-05-06 17:27 19.86132 -156.34154 8447 ft 280 kts 354°
2026-05-06 17:27 19.88070 -156.34339 9114 ft 279 kts 354°
2026-05-06 17:27 19.90007 -156.34531 9679 ft 280 kts 353°
2026-05-06 17:28 19.92006 -156.34713 9600 ft 301 kts 354°
2026-05-06 17:28 19.94101 -156.34926 9357 ft 302 kts 352°
2026-05-06 17:28 19.96153 -156.35195 9465 ft 295 kts 352°
2026-05-06 17:28 19.98197 -156.35487 9955 ft 296 kts 352°
2026-05-06 17:29 20.00247 -156.35409 10290 ft 302 kts 16°
2026-05-06 17:29 20.02086 -156.34299 10608 ft 313 kts 44°
2026-05-06 17:29 20.03311 -156.32328 10696 ft 328 kts 68°
2026-05-06 17:29 20.04126 -156.30010 10913 ft 342 kts 70°
2026-05-06 17:30 20.04956 -156.27603 11347 ft 351 kts 70°
2026-05-06 17:30 20.05789 -156.25183 12019 ft 353 kts 70°
2026-05-06 17:30 20.06639 -156.22719 12815 ft 355 kts 70°
2026-05-06 17:30 20.07498 -156.20239 13548 ft 360 kts 70°
2026-05-06 17:31 20.08373 -156.17726 14196 ft 366 kts 70°
2026-05-06 17:31 20.09285 -156.15112 14388 ft 386 kts 70°
2026-05-06 17:31 20.10248 -156.12362 14573 ft 406 kts 70°
2026-05-06 17:31 20.11247 -156.09508 14996 ft 414 kts 69°
2026-05-06 17:32 20.12263 -156.06612 15509 ft 421 kts 69°
2026-05-06 17:32 20.13275 -156.03724 16181 ft 422 kts 69°
2026-05-06 17:32 20.14318 -156.00746 16719 ft 427 kts 69°
2026-05-06 17:32 20.15342 -155.97821 17342 ft 429 kts 69°
2026-05-06 17:33 20.16387 -155.94831 17857 ft 433 kts 69°
2026-05-06 17:33 20.17441 -155.91814 18417 ft 436 kts 69°
2026-05-06 17:33 20.18503 -155.88775 18916 ft 439 kts 69°
2026-05-06 17:33 20.19571 -155.85717 19339 ft 443 kts 69°
2026-05-06 17:34 20.20755 -155.82684 19775 ft 443 kts 63°
2026-05-06 17:34 20.22252 -155.79795 20129 ft 448 kts 58°
2026-05-06 17:34 20.23913 -155.76982 20616 ft 449 kts 56°
2026-05-06 17:34 20.25628 -155.74184 21072 ft 452 kts 56°
2026-05-06 17:35 20.27347 -155.71371 21497 ft 455 kts 56°
2026-05-06 17:35 20.29037 -155.68558 21905 ft 458 kts 57°
2026-05-06 17:35 20.30735 -155.65677 22333 ft 461 kts 57°
2026-05-06 17:36 20.34123 -155.59815 23126 ft 468 kts 57°
2026-05-06 17:36 20.35823 -155.56842 23463 ft 472 kts 57°
2026-05-06 17:36 20.37539 -155.53835 23852 ft 474 kts 57°
2026-05-06 17:36 20.39257 -155.50822 24185 ft 476 kts 57°
2026-05-06 17:37 20.40983 -155.47793 24510 ft 479 kts 57°
2026-05-06 17:37 20.42717 -155.44751 24842 ft 482 kts 57°
2026-05-06 17:37 20.44461 -155.41692 25163 ft 484 kts 57°
2026-05-06 17:37 20.46216 -155.38611 25464 ft 487 kts 57°
2026-05-06 17:38 20.47981 -155.35513 25786 ft 490 kts 57°
2026-05-06 17:38 20.49758 -155.32393 26093 ft 493 kts 57°
2026-05-06 17:38 20.51542 -155.29260 26409 ft 496 kts 57°
2026-05-06 17:38 20.53337 -155.26103 26712 ft 499 kts 57°
2026-05-06 17:39 20.55139 -155.22935 27031 ft 501 kts 57°
2026-05-06 17:39 20.56950 -155.19746 27348 ft 504 kts 57°
2026-05-06 17:39 20.58773 -155.16536 27688 ft 506 kts 57°
2026-05-06 17:39 20.60598 -155.13320 27997 ft 508 kts 57°
2026-05-06 17:40 20.62410 -155.10126 28277 ft 511 kts 57°
2026-05-06 17:40 20.64258 -155.06865 28539 ft 514 kts 57°
2026-05-06 17:40 20.66115 -155.03588 28810 ft 516 kts 57°
2026-05-06 17:40 20.67977 -155.00299 29080 ft 518 kts 57°
2026-05-06 17:41 20.69846 -154.96997 29329 ft 521 kts 57°
2026-05-06 17:41 20.71725 -154.93674 29542 ft 524 kts 57°
2026-05-06 17:41 20.73617 -154.90328 29774 ft 526 kts 57°
2026-05-06 17:41 20.75512 -154.86972 29992 ft 528 kts 57°
2026-05-06 17:42 20.77411 -154.83608 30243 ft 529 kts 57°
2026-05-06 17:42 20.79289 -154.80280 30496 ft 529 kts 57°
2026-05-06 17:42 20.81190 -154.76908 30792 ft 529 kts 57°
2026-05-06 17:42 20.83084 -154.73547 31152 ft 527 kts 57°
2026-05-06 17:43 20.84982 -154.70176 31406 ft 528 kts 57°
2026-05-06 17:43 20.86884 -154.66798 31643 ft 530 kts 57°
2026-05-06 17:43 20.88787 -154.63416 31878 ft 531 kts 57°
2026-05-06 17:43 20.90668 -154.60070 32137 ft 531 kts 57°
2026-05-06 17:44 20.92571 -154.56683 32405 ft 532 kts 57°
2026-05-06 17:44 20.94478 -154.53286 32677 ft 533 kts 57°
2026-05-06 17:44 20.96391 -154.49878 32954 ft 533 kts 57°
2026-05-06 17:44 20.98300 -154.46474 33219 ft 534 kts 57°
2026-05-06 17:45 21.00216 -154.43055 33480 ft 535 kts 57°
2026-05-06 17:45 21.02129 -154.39641 33762 ft 535 kts 57°
2026-05-06 17:45 21.04041 -154.36225 34060 ft 535 kts 57°
2026-05-06 17:45 21.05948 -154.32814 34394 ft 533 kts 57°
2026-05-06 17:46 21.07853 -154.29407 34683 ft 533 kts 57°
2026-05-06 17:46 21.09756 -154.26001 34910 ft 534 kts 57°
2026-05-06 17:46 21.11662 -154.22589 35130 ft 534 kts 57°
2026-05-06 17:46 21.13572 -154.19166 35374 ft 535 kts 57°
2026-05-06 17:47 21.15484 -154.15739 35626 ft 535 kts 57°
2026-05-06 17:47 21.17394 -154.12312 35873 ft 535 kts 57°
2026-05-06 17:47 21.19280 -154.08928 36116 ft 535 kts 57°
2026-05-06 17:47 21.21190 -154.05497 36347 ft 536 kts 57°
2026-05-06 17:48 21.23101 -154.02061 36539 ft 537 kts 56°
2026-05-06 17:48 21.25016 -153.98617 36731 ft 538 kts 56°
2026-05-06 17:48 21.26933 -153.95167 36961 ft 538 kts 56°
2026-05-06 17:48 21.28860 -153.91699 37086 ft 541 kts 57°
2026-05-06 17:49 21.32729 -153.84726 37112 ft 546 kts 57°
2026-05-06 17:49 21.36606 -153.77731 37121 ft 552 kts 57°
2026-05-06 17:50 21.40541 -153.70617 37116 ft 556 kts 57°
2026-05-06 17:50 21.44505 -153.63445 37118 ft 560 kts 57°
2026-05-06 17:51 21.48484 -153.56235 37119 ft 562 kts 57°
2026-05-06 17:51 21.52461 -153.49016 37124 ft 555 kts 57°
2026-05-06 17:52 21.56359 -153.41931 37100 ft 548 kts 57°
2026-05-06 17:52 21.60212 -153.34925 37119 ft 548 kts 57°
2026-05-06 17:53 21.64087 -153.27869 37118 ft 548 kts 57°
2026-05-06 17:53 21.67967 -153.20790 37122 ft 550 kts 57°
2026-05-06 17:54 21.71856 -153.13680 37121 ft 551 kts 58°
2026-05-06 17:54 21.75580 -153.06444 37129 ft 553 kts 59°
2026-05-06 17:55 21.79202 -152.99146 37122 ft 553 kts 59°
2026-05-06 17:55 21.82837 -152.91857 37118 ft 552 kts 59°
2026-05-06 17:56 21.86471 -152.84629 37114 ft 552 kts 59°
2026-05-06 17:56 21.90135 -152.77352 37125 ft 552 kts 59°
2026-05-06 17:57 21.93796 -152.70068 37128 ft 551 kts 59°
2026-05-06 17:57 21.97417 -152.62847 37124 ft 551 kts 59°
2026-05-06 17:58 22.01055 -152.55580 37138 ft 550 kts 59°
2026-05-06 17:58 22.04685 -152.48319 37122 ft 550 kts 59°
2026-05-06 17:59 22.08319 -152.41041 37124 ft 550 kts 59°
2026-05-06 17:59 22.11945 -152.33771 37125 ft 550 kts 59°
2026-05-06 18:00 22.15544 -152.26544 37160 ft 550 kts 59°
2026-05-06 18:00 22.19166 -152.19257 37129 ft 550 kts 59°
2026-05-06 18:01 22.22781 -152.11978 37137 ft 550 kts 59°
2026-05-06 18:01 22.26387 -152.04704 37136 ft 549 kts 59°
2026-05-06 18:02 22.29966 -151.97474 37136 ft 549 kts 59°
2026-05-06 18:02 22.33570 -151.90186 37130 ft 549 kts 59°
2026-05-06 18:03 22.36556 -151.84127 37141 ft 549 kts 59°
2026-05-06 18:03 22.40136 -151.76823 37144 ft 549 kts 60°
2026-05-06 18:04 22.43707 -151.69518 37138 ft 549 kts 60°
2026-05-06 18:04 22.47255 -151.62253 37140 ft 549 kts 60°
2026-05-06 18:05 22.50816 -151.54955 37138 ft 549 kts 60°
2026-05-06 18:05 22.54379 -151.47645 37138 ft 549 kts 60°
2026-05-06 18:06 22.57937 -151.40331 37140 ft 549 kts 60°
2026-05-06 18:06 22.61487 -151.33026 37135 ft 549 kts 60°
2026-05-06 18:07 22.65042 -151.25698 37137 ft 549 kts 60°
2026-05-06 18:07 22.68566 -151.18424 37139 ft 549 kts 60°
2026-05-06 18:08 22.72109 -151.11099 37141 ft 549 kts 60°
2026-05-06 18:08 22.75654 -151.03761 37136 ft 549 kts 60°
2026-05-06 18:09 22.79190 -150.96431 37150 ft 549 kts 60°
2026-05-06 18:09 22.82703 -150.89138 37142 ft 549 kts 60°
2026-05-06 18:10 22.86235 -150.81792 37143 ft 549 kts 60°
2026-05-06 18:10 22.89765 -150.74442 37139 ft 549 kts 60°
2026-05-06 18:11 22.93294 -150.67082 37140 ft 549 kts 60°
2026-05-06 18:11 22.96795 -150.59771 37143 ft 549 kts 60°
2026-05-06 18:12 23.00316 -150.52407 37154 ft 549 kts 60°
2026-05-06 18:12 23.03832 -150.45040 37134 ft 550 kts 60°
2026-05-06 18:13 23.07350 -150.37661 37145 ft 549 kts 60°
2026-05-06 18:13 23.10860 -150.30285 37139 ft 549 kts 60°
2026-05-06 18:14 23.14365 -150.22911 37147 ft 549 kts 60°
2026-05-06 18:14 23.17848 -150.15570 37155 ft 549 kts 60°
2026-05-06 18:15 23.21349 -150.08182 37142 ft 550 kts 60°
2026-05-06 18:15 23.24848 -150.00786 37145 ft 550 kts 60°
2026-05-06 18:16 23.28341 -149.93392 37152 ft 550 kts 60°
2026-05-06 18:16 23.31839 -149.85976 37150 ft 550 kts 60°
2026-05-06 18:17 23.35326 -149.78572 37143 ft 550 kts 60°
2026-05-06 18:17 23.38793 -149.71199 37151 ft 550 kts 60°
2026-05-06 18:18 23.42279 -149.63774 37146 ft 551 kts 60°
2026-05-06 18:18 23.45763 -149.56344 37149 ft 551 kts 60°
2026-05-06 18:19 23.49249 -149.48895 37147 ft 551 kts 60°
2026-05-06 18:19 23.52705 -149.41500 37147 ft 551 kts 60°
2026-05-06 18:20 23.56185 -149.34044 37163 ft 551 kts 60°
2026-05-06 18:20 23.59662 -149.26581 37148 ft 551 kts 60°
2026-05-06 18:21 23.63131 -149.19124 37153 ft 551 kts 60°
2026-05-06 18:21 23.66601 -149.11653 37153 ft 551 kts 60°
2026-05-06 18:22 23.70042 -149.04233 37152 ft 551 kts 60°
2026-05-06 18:22 23.73498 -148.96769 37151 ft 551 kts 60°
2026-05-06 18:23 23.76959 -148.89286 37961 ft 550 kts 63°
2026-05-06 18:23 23.78679 -148.85560 36840 ft 548 kts 60°
2026-05-06 18:23 23.80387 -148.81852 37008 ft 545 kts 60°
2026-05-06 18:24 23.83803 -148.74440 37143 ft 548 kts 60°
2026-05-06 18:24 23.87242 -148.66971 37162 ft 552 kts 60°
2026-05-06 18:25 23.90679 -148.59492 37161 ft 556 kts 60°
2026-05-06 18:25 23.94152 -148.51919 37168 ft 558 kts 60°
2026-05-06 18:26 23.97639 -148.44302 37154 ft 559 kts 60°
2026-05-06 18:26 24.01113 -148.36703 37157 ft 558 kts 60°
2026-05-06 18:27 24.04555 -148.29160 37154 ft 556 kts 60°
2026-05-06 18:27 24.08002 -148.21596 37160 ft 554 kts 60°
2026-05-06 18:28 24.11436 -148.14047 37174 ft 552 kts 60°
2026-05-06 18:28 24.14851 -148.06529 37161 ft 551 kts 60°
2026-05-06 18:29 24.18258 -147.99018 37162 ft 550 kts 60°
2026-05-06 18:29 24.21637 -147.91556 37157 ft 549 kts 61°
2026-05-06 18:30 24.25030 -147.84050 37167 ft 549 kts 61°
2026-05-06 18:30 24.28420 -147.76540 37174 ft 549 kts 61°
2026-05-06 18:31 24.31807 -147.69024 37168 ft 550 kts 61°
2026-05-06 18:31 24.35195 -147.61491 37161 ft 550 kts 61°
2026-05-06 18:32 24.38562 -147.53993 37167 ft 550 kts 61°
2026-05-06 18:32 24.41946 -147.46447 37166 ft 551 kts 61°
2026-05-06 18:33 24.45306 -147.38941 37175 ft 551 kts 61°
2026-05-06 18:33 24.48688 -147.31375 37172 ft 551 kts 61°
2026-05-06 18:34 24.52061 -147.23815 37174 ft 551 kts 61°
2026-05-06 18:34 24.55431 -147.16250 37174 ft 551 kts 61°
2026-05-06 18:35 24.58795 -147.08685 37177 ft 551 kts 61°
2026-05-06 18:35 24.62137 -147.01157 37178 ft 551 kts 61°
2026-05-06 18:36 24.65495 -146.93582 37189 ft 551 kts 61°
2026-05-06 18:36 24.68856 -146.85986 37178 ft 551 kts 61°
2026-05-06 18:37 24.71643 -146.79676 37179 ft 551 kts 61°
2026-05-06 18:37 24.75550 -146.70819 37186 ft 550 kts 61°
2026-05-06 18:38 24.78869 -146.63281 37185 ft 550 kts 61°
2026-05-06 18:38 24.82203 -146.55697 37189 ft 549 kts 61°
2026-05-06 18:39 24.85529 -146.48116 37185 ft 549 kts 61°
2026-05-06 18:40 24.90478 -146.36813 37193 ft 548 kts 61°
2026-05-06 18:40 24.93788 -146.29240 37157 ft 544 kts 62°
2026-05-06 18:40 24.95397 -146.25545 37182 ft 526 kts 62°
2026-05-06 18:41 24.96971 -146.21929 37193 ft 520 kts 62°
2026-05-06 18:41 25.00105 -146.14738 37200 ft 521 kts 62°
2026-05-06 18:42 25.03227 -146.07563 37197 ft 522 kts 62°
2026-05-06 18:42 25.06372 -146.00322 37197 ft 523 kts 62°
2026-05-06 18:43 25.09518 -145.93062 37203 ft 525 kts 62°
2026-05-06 18:43 25.12664 -145.85790 37209 ft 526 kts 62°
2026-05-06 18:44 25.15797 -145.78538 37206 ft 526 kts 62°
2026-05-06 18:44 25.18947 -145.71233 37204 ft 527 kts 62°
2026-05-06 18:45 25.22096 -145.63918 37204 ft 527 kts 62°
2026-05-06 18:45 25.23674 -145.60251 37045 ft 528 kts 64°
2026-05-06 18:45 25.25238 -145.56603 37059 ft 523 kts 62°
2026-05-06 18:46 25.28334 -145.49393 37199 ft 522 kts 62°
2026-05-06 18:46 25.31459 -145.42101 37217 ft 526 kts 62°
2026-05-06 18:47 25.34592 -145.34771 37216 ft 529 kts 62°
2026-05-06 18:47 25.37740 -145.27392 37212 ft 530 kts 62°
2026-05-06 18:48 25.40869 -145.20043 37209 ft 531 kts 62°
2026-05-06 18:48 25.44015 -145.12643 37214 ft 530 kts 62°
2026-05-06 18:49 25.47147 -145.05264 37217 ft 529 kts 62°
2026-05-06 18:49 25.50272 -144.97887 37212 ft 527 kts 62°
2026-05-06 18:50 25.53381 -144.90539 37217 ft 526 kts 62°
2026-05-06 18:50 25.56459 -144.83250 37219 ft 524 kts 62°
2026-05-06 18:51 25.59547 -144.75928 37220 ft 523 kts 63°
2026-05-06 18:51 25.62624 -144.68616 37221 ft 523 kts 63°
2026-05-06 18:52 25.65680 -144.61345 37229 ft 523 kts 63°
2026-05-06 18:52 25.68746 -144.54036 37225 ft 523 kts 63°
2026-05-06 18:53 25.71794 -144.46758 37226 ft 523 kts 63°
2026-05-06 18:53 25.74854 -144.39437 37233 ft 523 kts 63°
2026-05-06 18:54 25.77912 -144.32110 37233 ft 524 kts 63°
2026-05-06 18:54 25.80969 -144.24772 37230 ft 524 kts 63°
2026-05-06 18:55 25.84032 -144.17408 37234 ft 524 kts 63°
2026-05-06 18:55 25.86571 -144.11292 37233 ft 524 kts 63°
2026-05-06 18:56 25.89621 -144.03936 37234 ft 524 kts 63°
2026-05-06 18:56 25.92672 -143.96563 37236 ft 524 kts 63°
2026-05-06 18:57 25.95699 -143.89237 37236 ft 524 kts 63°
2026-05-06 18:57 25.98738 -143.81868 37236 ft 524 kts 63°
2026-05-06 18:58 26.01773 -143.74498 37209 ft 524 kts 63°
2026-05-06 18:58 26.04802 -143.67126 37203 ft 524 kts 63°
2026-05-06 18:59 26.07830 -143.59747 37204 ft 524 kts 63°
2026-05-06 18:59 26.10838 -143.52403 37209 ft 524 kts 63°
2026-05-06 19:00 26.13861 -143.45007 37214 ft 525 kts 63°
2026-05-06 19:00 26.16885 -143.37598 37213 ft 525 kts 63°
2026-05-06 19:01 26.19901 -143.30194 37222 ft 525 kts 63°
2026-05-06 19:01 26.22915 -143.22781 37208 ft 525 kts 63°
2026-05-06 19:02 26.25906 -143.15416 37214 ft 525 kts 63°
2026-05-06 19:02 26.28910 -143.08002 37218 ft 525 kts 63°
2026-05-06 19:03 26.31916 -143.00570 37221 ft 525 kts 64°
2026-05-06 19:03 26.34913 -142.93149 37230 ft 525 kts 63°
2026-05-06 19:04 26.37892 -142.85757 37223 ft 525 kts 64°
2026-05-06 19:04 26.40886 -142.78315 37220 ft 525 kts 64°
2026-05-06 19:05 26.43877 -142.70868 37220 ft 526 kts 64°
2026-05-06 19:05 26.46870 -142.63403 37230 ft 526 kts 64°
2026-05-06 19:06 26.49842 -142.55975 37229 ft 526 kts 64°
2026-05-06 19:06 26.52826 -142.48505 37207 ft 527 kts 64°
2026-05-06 19:07 26.55811 -142.41017 37232 ft 527 kts 64°
2026-05-06 19:07 26.58792 -142.33525 37227 ft 527 kts 64°
2026-05-06 19:08 26.61770 -142.26029 37242 ft 528 kts 64°
2026-05-06 19:08 26.64748 -142.18517 37222 ft 528 kts 64°
2026-05-06 19:09 26.67702 -142.11054 37225 ft 528 kts 64°
2026-05-06 19:09 26.70672 -142.03538 37231 ft 528 kts 64°
2026-05-06 19:10 26.73640 -141.96010 37245 ft 528 kts 64°
2026-05-06 19:10 26.76603 -141.88481 37237 ft 529 kts 64°
2026-05-06 19:11 26.79566 -141.80939 37235 ft 529 kts 64°
2026-05-06 19:11 26.82524 -141.73394 37239 ft 529 kts 64°
2026-05-06 19:12 26.85463 -141.65885 37239 ft 530 kts 64°
2026-05-06 19:12 26.88424 -141.58305 37254 ft 530 kts 64°
2026-05-06 19:13 26.91378 -141.50731 37244 ft 530 kts 65°
2026-05-06 19:13 26.94309 -141.43199 37244 ft 530 kts 65°
2026-05-06 19:14 26.97251 -141.35624 37246 ft 530 kts 65°
2026-05-06 19:14 27.00187 -141.28045 37278 ft 531 kts 64°
2026-05-06 19:15 27.03133 -141.20437 37257 ft 530 kts 64°
2026-05-06 19:15 27.06064 -141.12848 37245 ft 529 kts 64°
2026-05-06 19:16 27.08989 -141.05262 37256 ft 529 kts 64°
2026-05-06 19:16 27.11902 -140.97687 37254 ft 528 kts 64°
2026-05-06 19:17 27.14790 -140.90169 37262 ft 527 kts 64°
2026-05-06 19:17 27.17688 -140.82606 37253 ft 527 kts 64°
2026-05-06 19:18 27.20582 -140.75041 37255 ft 527 kts 64°
2026-05-06 19:18 27.23473 -140.67470 37253 ft 526 kts 64°
2026-05-06 19:19 27.26356 -140.59904 37269 ft 526 kts 65°
2026-05-06 19:19 27.29238 -140.52328 37262 ft 526 kts 65°
2026-05-06 19:20 27.32110 -140.44761 37259 ft 526 kts 65°
2026-05-06 19:20 27.34977 -140.37193 37258 ft 526 kts 65°
2026-05-06 19:21 27.37823 -140.29667 37261 ft 526 kts 65°
2026-05-06 19:21 27.40680 -140.22096 37261 ft 526 kts 65°
2026-05-06 19:22 27.43536 -140.14514 37262 ft 525 kts 65°
2026-05-06 19:22 27.46387 -140.06930 37264 ft 525 kts 65°
2026-05-06 19:23 27.49234 -139.99341 37262 ft 525 kts 65°
2026-05-06 19:23 27.52076 -139.91752 37273 ft 525 kts 65°
2026-05-06 19:24 27.54894 -139.84210 37267 ft 525 kts 65°
2026-05-06 19:24 27.57722 -139.76629 37270 ft 524 kts 65°
2026-05-06 19:25 27.60543 -139.69051 37268 ft 524 kts 65°
2026-05-06 19:25 27.63362 -139.61464 37279 ft 523 kts 65°
2026-05-06 19:26 27.66172 -139.53885 37272 ft 523 kts 65°
2026-05-06 19:26 27.68971 -139.46320 37290 ft 523 kts 65°
2026-05-06 19:26 27.70355 -139.42575 37408 ft 524 kts 65°
2026-05-06 19:27 27.71757 -139.38777 37603 ft 523 kts 65°
2026-05-06 19:27 27.73152 -139.34993 37786 ft 522 kts 65°
2026-05-06 19:27 27.74545 -139.31212 37999 ft 521 kts 65°
2026-05-06 19:27 27.75933 -139.27440 38218 ft 519 kts 65°
2026-05-06 19:28 27.77316 -139.23678 38375 ft 519 kts 65°
2026-05-06 19:28 27.78703 -139.19902 38493 ft 519 kts 65°
2026-05-06 19:28 27.80087 -139.16130 38623 ft 520 kts 65°
2026-05-06 19:28 27.81472 -139.12352 38771 ft 519 kts 65°
2026-05-06 19:29 27.82838 -139.08622 38898 ft 519 kts 65°
2026-05-06 19:29 27.84220 -139.04843 39019 ft 519 kts 65°
2026-05-06 19:29 27.85600 -139.01067 39115 ft 520 kts 65°
2026-05-06 19:30 27.88359 -138.93506 39238 ft 520 kts 65°
2026-05-06 19:30 27.91096 -138.85991 39281 ft 519 kts 66°
2026-05-06 19:31 27.93843 -138.78429 39290 ft 519 kts 66°
2026-05-06 19:31 27.97940 -138.67115 39297 ft 518 kts 66°
2026-05-06 19:32 28.00667 -138.59563 39279 ft 518 kts 66°
2026-05-06 19:32 28.03386 -138.52021 39281 ft 517 kts 66°
2026-05-06 19:33 28.06083 -138.44523 39293 ft 517 kts 66°
2026-05-06 19:33 28.08793 -138.36974 39298 ft 516 kts 66°
2026-05-06 19:34 28.11493 -138.29439 39287 ft 516 kts 66°
2026-05-06 19:34 28.14194 -138.21883 39286 ft 516 kts 66°
2026-05-06 19:35 28.16871 -138.14380 39301 ft 516 kts 66°
2026-05-06 19:35 28.19557 -138.06837 39297 ft 516 kts 66°
2026-05-06 19:36 28.22244 -137.99276 39284 ft 516 kts 66°
2026-05-06 19:36 28.24924 -137.91720 39294 ft 516 kts 66°
2026-05-06 19:37 28.27598 -137.84162 39290 ft 516 kts 66°
2026-05-06 19:37 28.29819 -137.77876 39302 ft 516 kts 66°
2026-05-06 19:38 28.32921 -137.69076 39290 ft 516 kts 66°
2026-05-06 19:38 28.35586 -137.61498 39297 ft 516 kts 66°
2026-05-06 19:39 28.38246 -137.53921 39283 ft 516 kts 66°
2026-05-06 19:39 28.40903 -137.46332 39295 ft 516 kts 66°
2026-05-06 19:40 28.43539 -137.38793 39288 ft 516 kts 66°
2026-05-06 19:40 28.46190 -137.31193 39284 ft 517 kts 66°
2026-05-06 19:41 28.48834 -137.23596 39285 ft 517 kts 66°
2026-05-06 19:41 28.51474 -137.15995 39286 ft 517 kts 66°
2026-05-06 19:42 28.54114 -137.08380 39286 ft 517 kts 66°
2026-05-06 19:42 28.56730 -137.00815 39287 ft 517 kts 66°
2026-05-06 19:43 28.59359 -136.93199 39284 ft 517 kts 66°
2026-05-06 19:43 28.61544 -136.86855 39291 ft 517 kts 66°
2026-05-06 19:44 28.64172 -136.79214 39285 ft 517 kts 66°
2026-05-06 19:44 28.66791 -136.71579 39288 ft 517 kts 66°
2026-05-06 19:45 28.69404 -136.63946 39285 ft 517 kts 66°
2026-05-06 19:45 28.72014 -136.56307 39287 ft 518 kts 66°
2026-05-06 19:46 28.74605 -136.48707 39286 ft 518 kts 66°
2026-05-06 19:46 28.77210 -136.41049 39289 ft 518 kts 66°
2026-05-06 19:47 28.79811 -136.33385 39286 ft 518 kts 66°
2026-05-06 19:47 28.82391 -136.25767 39284 ft 518 kts 66°
2026-05-06 19:48 28.84985 -136.18092 39287 ft 518 kts 66°
2026-05-06 19:48 28.87574 -136.10414 39287 ft 518 kts 66°
2026-05-06 19:49 28.90162 -136.02723 39290 ft 519 kts 65°
2026-05-06 19:49 28.92748 -135.95021 39285 ft 519 kts 65°
2026-05-06 19:50 28.95330 -135.87316 39286 ft 519 kts 65°
2026-05-06 19:50 28.97894 -135.79645 39280 ft 519 kts 65°
2026-05-06 19:51 29.00470 -135.71921 39291 ft 520 kts 65°
2026-05-06 19:51 29.03028 -135.64235 39280 ft 520 kts 65°
2026-05-06 19:52 29.05594 -135.56510 39281 ft 520 kts 65°
2026-05-06 19:52 29.08156 -135.48775 39282 ft 520 kts 65°
2026-05-06 19:53 29.10716 -135.41032 39282 ft 520 kts 65°
2026-05-06 19:53 29.13272 -135.33283 39281 ft 520 kts 65°
2026-05-06 19:54 29.15829 -135.25515 39278 ft 520 kts 65°
2026-05-06 19:54 29.18365 -135.17791 39286 ft 520 kts 65°
2026-05-06 19:55 29.20909 -135.10027 39278 ft 521 kts 65°
2026-05-06 19:55 29.23452 -135.02250 39280 ft 521 kts 65°
2026-05-06 19:56 29.25973 -134.94520 39281 ft 521 kts 65°
2026-05-06 19:56 29.28506 -134.86737 39273 ft 521 kts 65°
2026-05-06 19:57 29.31037 -134.78943 39277 ft 521 kts 65°
2026-05-06 19:57 29.33562 -134.71146 39278 ft 521 kts 65°
2026-05-06 19:58 29.36082 -134.63351 39277 ft 521 kts 65°
2026-05-06 19:58 29.38582 -134.55598 39284 ft 522 kts 65°
2026-05-06 19:59 29.41098 -134.47777 39277 ft 522 kts 65°
2026-05-06 19:59 29.43611 -134.39948 39284 ft 522 kts 65°
2026-05-06 20:00 29.46118 -134.32117 39275 ft 523 kts 65°
2026-05-06 20:00 29.48607 -134.24328 39277 ft 523 kts 65°
2026-05-06 20:01 29.51104 -134.16494 39267 ft 523 kts 65°
2026-05-06 20:01 29.53597 -134.08656 39280 ft 522 kts 65°
2026-05-06 20:02 29.56088 -134.00804 39285 ft 523 kts 65°
2026-05-06 20:02 29.58573 -133.92954 39269 ft 523 kts 65°
2026-05-06 20:03 29.61056 -133.85093 39266 ft 523 kts 65°
2026-05-06 20:03 29.63515 -133.77286 39274 ft 523 kts 65°
2026-05-06 20:04 29.65987 -133.69422 39262 ft 523 kts 65°
2026-05-06 20:04 29.68452 -133.61559 39282 ft 522 kts 65°
2026-05-06 20:05 29.70913 -133.53693 39270 ft 522 kts 65°
2026-05-06 20:05 29.73370 -133.45820 39260 ft 522 kts 65°
2026-05-06 20:06 29.75819 -133.37952 39252 ft 522 kts 65°
2026-05-06 20:06 29.78249 -133.30129 39259 ft 522 kts 65°
2026-05-06 20:07 29.80690 -133.22251 39278 ft 522 kts 65°
2026-05-06 20:07 29.83128 -133.14365 39265 ft 523 kts 65°
2026-05-06 20:08 29.85566 -133.06458 39254 ft 523 kts 65°
2026-05-06 20:08 29.87999 -132.98549 39269 ft 523 kts 65°
2026-05-06 20:09 29.90429 -132.90631 39248 ft 524 kts 65°
2026-05-06 20:09 29.92838 -132.82760 39257 ft 524 kts 65°
2026-05-06 20:10 29.95259 -132.74830 39242 ft 524 kts 65°
2026-05-06 20:10 29.97682 -132.66876 39247 ft 524 kts 65°
2026-05-06 20:11 30.00098 -132.58925 39259 ft 524 kts 65°
2026-05-06 20:11 30.02493 -132.51027 39247 ft 525 kts 65°
2026-05-06 20:12 30.04105 -132.45695 39248 ft 525 kts 65°